Weather History for Bluefield, WV

Change the Weather History Date:

Wednesday, January 29, 2014

  Actual Average Record
Temperature  
Mean Temperature 8 °F 35 °F  
Max Temperature 17 °F 43 °F 68 °F (2013)
Min Temperature -2 °F 27 °F -2 °F (1977)
Degree Days  
Heating Degree Days 57 30  
Month to date heating degree days 1050 896  
Since 1 July heating degree days 2747 2661  
Cooling Degree Days 0 0  
Month to date cooling degree days 0 0  
Year to date cooling degree days 0 0  
Moisture  
Dew Point -6 °F    
Average Humidity 56    
Maximum Humidity 83    
Minimum Humidity 28    
Precipitation  
Precipitation T in 0.09 in 1.04 in (1970)
Month to date precipitation 1.57 2.72  
Year to date precipitation 1.57 2.72  
Snow  
Snow T in - - ()
Month to date snowfall 15.9  
Since 1 July snowfall 20.2  
Snow Depth 4.00 in    
Sea Level Pressure  
Sea Level Pressure 30.25 in    
Wind  
Wind Speed 6 mph (West)    
Max Wind Speed 13 mph    
Max Gust Speed 20 mph    
Visibility 9 miles    
Events Snow    
T = Trace of Precipitation, MM = Missing Value Source: NWS Daily Summary

Daily Weather History Graph

Daily Weather History Graph

Search for Another Location

Airport:

Trip Planner

Search our weather history database for the weather conditions in past years. The results will help you decide how hot, cold, wet, or windy it might be!

Date:

Astronomy

Jan. 29, 2014 Rise Set
Actual Time 7:30 AM EST 5:46 PM EST
Civil Twilight 7:02 AM EST 6:13 PM EST
Nautical Twilight 6:31 AM EST 6:45 PM EST
Astronomical Twilight 6:00 AM EST 7:15 PM EST
Moon 6:05 AM EST (1/29) 4:43 PM EST (1/29)
Length of Visible Light 11h 11m
Length of Day
10h 15m
Waning Crescent, 2% of the Moon is Illuminated
Jan 29
Waning Crescent
Jan 30
New
Feb 6
First Quarter
Feb 14
Full
Feb 22
Last Quarter

Hourly Weather History & Observations

Time (EST) Temp. Windchill Dew Point Humidity Pressure Visibility Wind Dir Wind Speed Gust Speed Precip Events Conditions
12:06 AM 6.8 °F -4.8 °F -0.4 °F 72% 30.07 in 5.0 mi NW 6.9 mph - 0.00 in Snow Light Snow
12:23 AM 6.8 °F -3.5 °F 1.4 °F 79% 30.07 in 7.0 mi NW 5.8 mph - 0.00 in   Overcast
12:52 AM 7.0 °F -3.3 °F 1.0 °F 77% 30.21 in 9.0 mi West 5.8 mph - 0.00 in   Overcast
1:52 AM 5.0 °F -9.1 °F -0.9 °F 76% 30.21 in 10.0 mi WNW 9.2 mph - N/A   Overcast
2:37 AM 5.0 °F -4.1 °F -0.4 °F 78% 30.06 in 9.0 mi NW 4.6 mph - 0.00 in   Overcast
2:52 AM 5.0 °F -8.1 °F -0.9 °F 76% 30.21 in 7.0 mi WNW 8.1 mph - 0.00 in   Overcast
3:52 AM 3.0 °F -8.0 °F -2.9 °F 76% 30.24 in 4.0 mi WNW 5.8 mph 16.1 mph 0.00 in Snow Light Snow
4:38 AM 1.4 °F -12.5 °F -5.8 °F 72% 30.09 in 10.0 mi WNW 8.1 mph - 0.00 in   Scattered Clouds
4:52 AM 1.9 °F -9.2 °F -5.1 °F 72% 30.25 in 10.0 mi West 5.8 mph - 0.00 in   Mostly Cloudy
4:59 AM 1.4 °F -11.3 °F -5.8 °F 72% 30.10 in 9.0 mi West 6.9 mph - N/A   Mostly Cloudy
5:34 AM -0.4 °F -12.0 °F -5.8 °F 78% 30.11 in 10.0 mi West 5.8 mph - N/A   Scattered Clouds
5:42 AM -0.4 °F -12.0 °F -5.8 °F 78% 30.11 in 10.0 mi West 5.8 mph - N/A   Mostly Cloudy
5:52 AM -0.0 °F -13.0 °F -6.0 °F 76% 30.27 in 10.0 mi West 6.9 mph - N/A   Mostly Cloudy
6:26 AM -0.4 °F -12.0 °F -7.6 °F 72% 30.11 in 10.0 mi West 5.8 mph - N/A   Scattered Clouds
6:52 AM -0.9 °F -11.0 °F -7.1 °F 75% 30.28 in 10.0 mi West 4.6 mph - N/A   Clear
7:52 AM -0.9 °F -11.0 °F -7.1 °F 75% 30.30 in 10.0 mi West 4.6 mph - N/A   Clear
8:52 AM 1.0 °F -10.3 °F -6.0 °F 72% 30.31 in 10.0 mi West 5.8 mph - N/A   Clear
9:52 AM 3.9 °F -10.4 °F -6.0 °F 64% 30.33 in 10.0 mi West 9.2 mph - N/A   Clear
10:52 AM 7.0 °F -6.6 °F -8.0 °F 51% 30.34 in 10.0 mi West 9.2 mph - N/A   Clear
11:52 AM 10.9 °F 0.2 °F -9.9 °F 39% 30.32 in 10.0 mi Variable 6.9 mph - N/A   Clear
12:52 PM 12.9 °F -0.9 °F -9.9 °F 35% 30.30 in 10.0 mi West 11.5 mph - N/A   Clear
1:52 PM 15.1 °F 7.7 °F -9.9 °F 32% 30.30 in 10.0 mi West 4.6 mph - N/A   Clear
2:52 PM 17.1 °F 4.3 °F -11.0 °F 28% 30.28 in 10.0 mi WNW 11.5 mph 16.1 mph N/A   Clear
3:52 PM 17.1 °F 5.8 °F -9.0 °F 31% 30.30 in 10.0 mi WNW 9.2 mph - N/A   Clear
4:52 PM 17.1 °F 6.6 °F -8.0 °F 33% 30.31 in 10.0 mi WNW 8.1 mph - N/A   Clear
5:52 PM 15.1 °F 7.7 °F -7.1 °F 37% 30.32 in 10.0 mi NW 4.6 mph - N/A   Clear
6:52 PM 12.9 °F - -7.1 °F 41% 30.35 in 10.0 mi Calm Calm - N/A   Clear
7:52 PM 12.0 °F 5.9 °F -6.0 °F 44% 30.36 in 10.0 mi West 3.5 mph - N/A   Clear
8:52 PM 10.9 °F 2.9 °F -6.0 °F 47% 30.36 in 10.0 mi West 4.6 mph - N/A   Clear
9:52 PM 8.1 °F -0.5 °F -7.1 °F 50% 30.36 in 10.0 mi West 4.6 mph - N/A   Clear
10:52 PM 8.1 °F 1.4 °F -7.1 °F 50% 30.35 in 10.0 mi WSW 3.5 mph - N/A   Clear
11:52 PM 9.0 °F 2.4 °F -6.0 °F 51% 30.34 in 10.0 mi WSW 3.5 mph - N/A   Clear